Regional Weather Roundup
Issued by NWS

Home | Current Version | Previous Version | Text Only | Print | Product List | Glossary On
Versions: 1 2 3 4 5 6 7 8 9 10 11 12 13 14 15 16 17 18 19 20 21 22 23 24 25 26 27 28 29 30 31 32 33 34 35 36 37 38 39 40 41 42 43 44 45 46 47 48 49 50
670
ASUS43 KDTX 050510
RWRMI
MICHIGAN HOURLY REGIONAL WEATHER ROUNDUP
NATIONAL WEATHER SERVICE DETROIT/PONTIAC MI
100 AM EDT THU MAY 05 2016

NOTE: "FAIR" INDICATES FEW OR NO CLOUDS BELOW 12,000 FEET WITH NO
SIGNIFICANT WEATHER AND/OR OBSTRUCTION TO VISIBILITY.

MIZ047>049-052>055-059>063-066>070-074>076-081>083-050600-
SOUTHEAST LOWER MICHIGAN

CITY           SKY/WX    TMP DP  RH WIND       PRES   REMARKS
ADRIAN         CLOUDY    43  40  89 NW3       29.74R
ALMA           CLOUDY    45  43  94 N9        29.81R
ANN ARBOR      CLOUDY    47  45  93 CALM      29.73R
BAD AXE        PTCLDY    42  41  97 N12       29.80R
CARO           CLOUDY    45  43  93 N5        29.77S
DETROIT CITY   CLOUDY    49  47  93 N5        29.73S
DETROIT        LGT RAIN  50  48  93 N6        29.73S FOG
FLINT          MOCLDY    47  42  83 N10       29.78R
GROSSE ILE     LGT RAIN  50  48  93 N6        29.72R
HILLSDALE      CLOUDY    41  38  91 CALM      29.73S
HOWELL         CLOUDY    47  47  97 N8        29.75R FOG

CITY           SKY/WX    TMP DP  RH WIND       PRES   REMARKS
JACKSON        LGT RAIN  44  42  93 N5        29.74R
LAMBERTVILLE   LGT RAIN  46  43  91 CALM      29.73S
LANSING        CLOUDY    47  44  90 N14G23    29.77R
LAPEER         FAIR      43  41  93 N6        29.77R
MASON          CLOUDY    46  45  93 NE7       29.76R FOG
MONROE         LGT RAIN  46  45  95 NW6       29.72R
MT. CLEMENS    CLOUDY    47  47 100 N7        29.72S
PONTIAC        CLOUDY    48  46  93 N6        29.73S
PORT HOPE        N/A     43  41  93 VRB5      29.79R
PORT HURON     PTCLDY    46  43  87 NW3       29.74S
TRI CITIES     CLOUDY    46  43  89 N10       29.80R
MIDLAND        CLOUDY    45  43  93 N7        29.80R
TROY           CLOUDY    49  48  96 CALM      29.75S
SAGINAW HB     MOCLDY    45  43  93 N7        29.79R
$$
MIZ043>046-050>051-056>058-064>065-071>073-077>080-050600-
SOUTHWEST LOWER MICHIGAN

CITY           SKY/WX    TMP DP  RH WIND       PRES   REMARKS
BATTLE CREEK   LGT RAIN  45  42  89 NE3       29.76R
BENTON HARBOR  CLOUDY    42  38  85 N13G21    29.80R
BIG RAPIDS     CLOUDY    42  37  82 N10       29.83S
COLDWATER      CLOUDY    42  41  97 NE9       29.75R
FREMONT        CLOUDY    40  38  90 N9G16     29.84R WCI  35
HOLLAND        CLOUDY   N/A N/A N/A N14G20    29.82R
GRAND RAPIDS   CLOUDY    46  43  89 N10       29.81R
IONIA          CLOUDY    45  43  94 N12       29.79R
KALAMAZOO      LGT RAIN  45  43  93 CALM      29.77R FOG
MARSHALL       DRIZZLE   43  42  94 CALM      29.75R
MOUNT PLEASANT CLOUDY    44  42  92 N13         N/A
MUSKEGON       CLOUDY    42  36  79 N13       29.85R
SOUTH HAVEN    CLOUDY    42  40  92 N13G20    29.79S
$$
MIZ016>042-050600-
NORTHERN LOWER MICHIGAN

CITY           SKY/WX    TMP DP  RH WIND       PRES   REMARKS
ALPENA         CLOUDY    44  41  89 N9        29.85R
BEAVER ISLAND  CLOUDY    40  35  83 N6        29.92S
BELLAIRE       CLOUDY    43  34  72 N3        29.90S
CADILLAC       CLOUDY    39  34  84 N8        29.85F WCI  33
CHARLEVOIX     CLOUDY    40  37  88 N5        29.94R
FRANKFORT      CLOUDY    40  35  81 N6G18     29.92R
GAYLORD        CLOUDY    42  39  89 VRB5      29.87R
GRAYLING       CLOUDY    43  41  93 N6        29.87S
HARBOR SPRINGS CLOUDY    42  36  79 CALM      29.89S
HOUGHTON LAKE  CLOUDY    42  40  92 N9        29.85R
MANISTEE       CLOUDY    41  30  65 N8        29.91R
OSCODA         MOCLDY    46  42  89 N9        29.82R
PELLSTON       CLOUDY    41  37  86 NW6       29.89S
ROGERS CITY    CLOUDY    42  40  91 NW5       29.88R
TRAVERSE CITY  CLOUDY    43  34  70 N8        29.90R
$$
MIZ007>008-015-050600-
EASTERN UPPER MICHIGAN

CITY           SKY/WX    TMP DP  RH WIND       PRES   REMARKS
KINROSS          N/A     43  41  93 N8        29.89S
MACKINAC ISLAN CLOUDY    42  38  87 N9        29.89S
NEWBERRY       CLEAR     37  34  91 NW6       29.92R WCI  32
S. S. MARIE    CLOUDY    44  39  82 N7        29.89S
MUNISING         N/A     38  34  85 NW3       29.97R
$$
MIZ004>006-011>014-085-050600-
CENTRAL UPPER MICHIGAN

CITY           SKY/WX    TMP DP  RH WIND       PRES   REMARKS
MANISTIQUE     CLEAR     35  32  91 NW8       29.93S WCI  28
ESCANABA       CLEAR     36  30  80 N3        29.97R
MENOMINEE      CLEAR     36  30  80 N7        29.98S WCI  30
SAWYER-GWINN   CLEAR     33  30  86 N6        29.96R WCI  28
$$
MIZ001>003-009>011-084-050600-
WESTERN UPPER MICHIGAN

CITY           SKY/WX    TMP DP  RH WIND       PRES   REMARKS
IRON MOUNTAIN  CLEAR     34  28  79 CALM      29.96S
HOUGHTON       CLEAR     33  29  85 N3        29.99S
COPPER HARBOR    N/A     37  34  89 N7        30.00S WCI  32
IRONWOOD         N/A     32  30  93 CALM      29.98R
$$

ABBREVIATIONS USED IN REMARKS
   TC - TEMPERATURE IN CELSIUS
  WCI - WIND CHILL INDEX
   HX - HEAT INDEX
  VSB - VISIBILITY





USA.gov is the U.S. government's official web portal to all federal, state and local government web resources and services.